sat.trackr.live / text

‹ back to catalog

STARLINK-35704

NORAD 66221 · 2025-244R

PAYLOAD ACTIVE UNKNOWN

§ Identity

Operator
Country
US
Launch date
2025-10-28
Launch site
AFWTR
Launch vehicle
Mass (kg)
RCS (m²)

Purposes: comms

External: N2YO · Heavens-Above · Gunter

§ Orbital elements

Epoch: 2026-09-20T16:11:19.970016Z

Period
93.85 min
Inclination
53.1553°
Eccentricity
0.0001133
Mean motion
15.34429973 rev/d
Perigee alt
461.8 km
Apogee alt
463.4 km
Semi-major
6,840.8 km
B*
7.5527e-4
RAAN
42.7360°
Arg perigee
103.3401°
Mean anomaly
256.7728°
Rev number
5,153

§ Raw data

STARLINK-357041 66221U 25244R   26263.67453669  .00025252  00000+0  75527-3 0  99932 66221  53.1553  42.7360 0001133 103.3401 256.7728 15.34429973 51531

JSON: /api/v1/satellites/66221 · /tle

For live sub-satellite position, see the globe view (requires WebGL).

§ Visibility from observer

Set your observer location to see the next 7 days of passes ≥ 10°. The values pass through the URL so the page stays shareable.

No JS? Fill the form by hand. The geolocation button needs JavaScript.